Location: Unspecified
(43.0000°N, 0.0000°E)
Time: 12:31:36
(UTC+00:00)

PicSat - Pass Details

Date: 15 August 2020
Orbit: 482 x 496 km, 97.4° (Epoch: 21 September)

Event Time Altitude Azimuth Distance (km) Brightness Sun altitude
Exits shadow 23:01:18 11° 297° (WNW) 1,615 ? -31.5°
Drops below altitude 10° 23:01:42 10° 303° (WNW) 1,702 ? -31.5°
Sets 23:04:34 0° 328° (NNW) 2,590 ? -31.7°
